TimeICT,TemperatureF,Dew PointF,Humidity,Sea Level PressureIn,VisibilityMPH,Wind Direction,Wind SpeedMPH,Gust SpeedMPH,PrecipitationIn,Events,Conditions,WindDirDegrees,DateUTC
12:00 AM,77.0,69.8,78,29.89,4.3,Calm,Calm,-,N/A,,Unknown,0,2013-01-03 17:00:00
12:30 AM,77.0,68.0,74,29.86,4.3,Calm,Calm,-,N/A,,Unknown,0,2013-01-03 17:30:00
1:00 AM,75.2,68.0,78,29.86,4.3,Calm,Calm,-,N/A,,Unknown,0,2013-01-03 18:00:00
7:00 AM,73.4,64.4,73,29.86,4.3,Variable,3.5,-,N/A,,Partly Cloudy,0,2013-01-04 00:00:00
7:30 AM,73.4,64.4,73,29.89,4.3,Variable,2.3,-,N/A,,Partly Cloudy,0,2013-01-04 00:30:00
8:00 AM,75.2,64.4,69,29.89,4.3,Variable,2.3,-,N/A,,Partly Cloudy,0,2013-01-04 01:00:00
8:30 AM,77.0,64.4,65,29.92,5.6,Variable,1.2,-,N/A,,Partly Cloudy,0,2013-01-04 01:30:00
9:00 AM,78.8,64.4,61,29.92,5.6,Calm,Calm,-,N/A,,Partly Cloudy,0,2013-01-04 02:00:00
9:30 AM,80.6,64.4,58,29.92,6.2,Variable,1.2,-,N/A,,Scattered Clouds,0,2013-01-04 02:30:00
10:00 AM,80.6,64.4,58,29.92,6.2,Variable,1.2,-,N/A,,Scattered Clouds,0,2013-01-04 03:00:00
10:30 AM,82.4,64.4,54,29.89,6.2,Variable,3.5,-,N/A,,Scattered Clouds,0,2013-01-04 03:30:00
11:00 AM,82.4,64.4,54,29.89,6.2,Variable,3.5,-,N/A,,Partly Cloudy,0,2013-01-04 04:00:00
11:30 AM,86.0,64.4,48,29.89,6.2,Variable,3.5,-,N/A,,Partly Cloudy,0,2013-01-04 04:30:00
12:00 PM,84.2,64.4,51,29.86,6.2,NNW,4.6,-,N/A,,Partly Cloudy,340,2013-01-04 05:00:00
12:30 PM,86.0,64.4,48,29.83,6.2,East,5.8,-,N/A,,Partly Cloudy,100,2013-01-04 05:30:00
1:00 PM,86.0,64.4,48,29.83,6.2,Variable,3.5,-,N/A,,Partly Cloudy,0,2013-01-04 06:00:00
1:30 PM,87.8,64.4,46,29.80,6.2,Variable,3.5,-,N/A,,Partly Cloudy,0,2013-01-04 06:30:00
2:00 PM,87.8,64.4,46,29.77,6.2,NNE,4.6,-,N/A,,Scattered Clouds,30,2013-01-04 07:00:00
2:30 PM,87.8,62.6,43,29.77,6.2,NNE,4.6,-,N/A,,Scattered Clouds,30,2013-01-04 07:30:00
3:00 PM,87.8,64.4,46,29.77,6.2,Variable,4.6,-,N/A,,Scattered Clouds,0,2013-01-04 08:00:00
3:30 PM,87.8,62.6,43,29.74,6.2,Variable,3.5,-,N/A,,Scattered Clouds,0,2013-01-04 08:30:00
4:00 PM,87.8,62.6,43,29.74,6.2,ESE,5.8,-,N/A,,Scattered Clouds,110,2013-01-04 09:00:00
4:30 PM,87.8,60.8,40,29.74,6.2,Variable,3.5,-,N/A,,Scattered Clouds,0,2013-01-04 09:30:00
5:00 PM,87.8,62.6,43,29.74,6.2,NE,4.6,-,N/A,,Scattered Clouds,50,2013-01-04 10:00:00
5:30 PM,87.8,62.6,43,29.77,6.2,NE,4.6,-,N/A,,Scattered Clouds,50,2013-01-04 10:30:00
6:00 PM,84.2,68.0,58,29.77,5.6,Variable,1.2,-,N/A,,Partly Cloudy,0,2013-01-04 11:00:00
6:30 PM,80.6,69.8,70,29.77,5.6,Variable,3.5,-,N/A,,Partly Cloudy,0,2013-01-04 11:30:00
7:00 PM,80.6,68.0,65,29.77,5.6,Variable,1.2,-,N/A,,Partly Cloudy,0,2013-01-04 12:00:00
7:30 PM,80.6,69.8,70,29.80,5.6,Variable,1.2,-,N/A,,Partly Cloudy,0,2013-01-04 12:30:00
8:00 PM,78.8,69.8,74,29.80,4.3,Variable,1.2,-,N/A,,Partly Cloudy,0,2013-01-04 13:00:00
8:30 PM,77.0,69.8,78,29.80,4.3,Variable,2.3,-,N/A,,Partly Cloudy,0,2013-01-04 13:30:00
9:00 PM,77.0,69.8,78,29.80,4.3,Variable,1.2,-,N/A,,Partly Cloudy,0,2013-01-04 14:00:00
9:30 PM,77.0,69.8,78,29.80,4.3,Variable,1.2,-,N/A,,Partly Cloudy,0,2013-01-04 14:30:00
10:00 PM,75.2,71.6,89,29.80,4.3,Variable,2.3,-,N/A,,Partly Cloudy,0,2013-01-04 15:00:00
10:30 PM,73.4,69.8,88,29.80,4.3,Calm,Calm,-,N/A,,Partly Cloudy,0,2013-01-04 15:30:00
11:00 PM,77.0,69.8,78,29.80,4.3,Variable,1.2,-,N/A,,Partly Cloudy,0,2013-01-04 16:00:00
11:30 PM,75.2,69.8,83,29.80,4.3,Variable,2.3,-,N/A,,Partly Cloudy,0,2013-01-04 16:30:00